Overview Statistics Trail Chart Weather Telemetry Raw packets
 

This is the latest recevied weather packets stored in our database for station/object IU3OVK-13. If no packets are shown the sender has not sent any weather packets the latest 10 day(s).

<< 16 17 18 19 20 21 22 >>
Time Temp. Humidity Pressure Rain* Wind** Luminosity Snow
1788285060 25.56° C 99% 1011.5 hPa - - - -
1788284440 25.56° C 99% 1011.4 hPa - - - -
1788283820 26.11° C 99% 1011.1 hPa - - - -
1788283200 26.11° C 99% 1010.7 hPa - - - -
1788282579 26.67° C 99% 1011.1 hPa - - - -
1788281959 26.67° C 99% 1010.6 hPa - - - -
1788281339 26.67° C 99% 1010.7 hPa - - - -
1788280733 27.22° C 99% 1010.7 hPa - - - -
1788280099 27.22° C 99% 1011.1 hPa - - - -
1788278858 27.22° C 99% 1010.4 hPa - - - -
1788276998 27.22° C 99% 1011 hPa - - - -
1788276377 27.22° C 99% 1009.8 hPa - - - -
1788275757 27.78° C 99% 1010.5 hPa - - - -
1788275137 27.22° C 99% 1010.9 hPa - - - -
1788274517 27.22° C 99% 1010.8 hPa - - - -
1788273897 27.78° C 99% 1010.7 hPa - - - -
1788272656 27.78° C 99% 1010.5 hPa - - - -
1788272036 27.78° C 99% 1011.3 hPa - - - -
1788270176 28.89° C 99% 1008.5 hPa - - - -
1788269555 28.89° C 99% 1009.7 hPa - - - -
1788268951 28.33° C 99% 1011 hPa - - - -
1788268315 27.78° C 99% 1012.5 hPa - - - -
1788267696 29.44° C 97% 1011.8 hPa - - - -
1788267075 29.44° C 93% 1009.8 hPa - - - -
1788266467 29.44° C 90% 1007.7 hPa - - - -

* Rain since midnight (hover to see other rain measurements)
** Current wind speed in m/s (hover to see current wind gust speed)